This is the latest recevied weather packets stored in our database for station/object W1RCY. If no packets are shown the sender has not sent any weather packets the latest 1 day(s).
| Time | Temp. | Humidity | Pressure | Rain* | Wind** | Luminosity | Snow |
|---|---|---|---|---|---|---|---|
| 1778036661 | 16.11° C | 83% | 1007 hPa | 0 mm | 0 m/s | 0 W/m² | - |
| 1778036357 | 16.67° C | 83% | 1007 hPa | 0 mm | 0 m/s | 0 W/m² | - |
| 1778036055 | 16.67° C | 82% | 1007 hPa | 0 mm | 0.45 m/s, 218° | 0 W/m² | - |
| 1778035751 | 16.67° C | 81% | 1006.8 hPa | 0 mm | 0.89 m/s, 188° | 0 W/m² | - |
| 1778035448 | 16.67° C | 82% | 1006.7 hPa | 0 mm | 0 m/s | 0 W/m² | - |
| 1778035144 | 17.22° C | 81% | 1006.9 hPa | 0 mm | 0 m/s | 0 W/m² | - |
| 1778034841 | 17.22° C | 80% | 1006.6 hPa | 0 mm | 0.45 m/s, 208° | 0 W/m² | - |
| 1778034537 | 17.22° C | 81% | 1006.9 hPa | 0 mm | 0 m/s | 0 W/m² | - |
| 1778034235 | 16.67° C | 81% | 1007.1 hPa | 0 mm | 0.45 m/s, 253° | 0 W/m² | - |
| 1778033933 | 17.22° C | 82% | 1007 hPa | 0 mm | 0 m/s | 0 W/m² | - |
| 1778033630 | 17.22° C | 81% | 1007 hPa | 0 mm | 0.45 m/s, 198° | 0 W/m² | - |
| 1778033326 | 17.22° C | 81% | 1007.3 hPa | 0 mm | 0.89 m/s, 183° | 0 W/m² | - |
| 1778033025 | 17.22° C | 81% | 1007.3 hPa | 0 mm | 0 m/s | 0 W/m² | - |
| 1778032722 | 17.22° C | 81% | 1007.4 hPa | 0 mm | 0 m/s | 0 W/m² | - |
| 1778032419 | 17.22° C | 81% | 1007.4 hPa | 0 mm | 1.34 m/s, 183° | 0 W/m² | - |
| 1778032116 | 17.78° C | 80% | 1007.4 hPa | 0 mm | 1.34 m/s, 199° | 0 W/m² | - |
| 1778031813 | 16.67° C | 82% | 1007.3 hPa | 0 mm | 0.89 m/s, 188° | 0 W/m² | - |
| 1778031509 | 17.22° C | 84% | 1007 hPa | 0 mm | 0 m/s | 0 W/m² | - |
| 1778031207 | 17.22° C | 82% | 1007.3 hPa | 0 mm | 0 m/s | 0 W/m² | - |
| 1778030903 | 17.22° C | 81% | 1007.3 hPa | 0 mm | 0 m/s | 0 W/m² | - |
| 1778030600 | 17.22° C | 82% | 1007.3 hPa | 0 mm | 0.45 m/s, 250° | 0 W/m² | - |
| 1778030298 | 17.22° C | 82% | 1007.1 hPa | 0 mm | 0.45 m/s, 276° | 0 W/m² | - |
| 1778029994 | 17.22° C | 81% | 1007 hPa | 0 mm | 0.89 m/s, 242° | 0 W/m² | - |
| 1778029692 | 17.78° C | 80% | 1007.2 hPa | 0 mm | 1.34 m/s, 300° | 0 W/m² | - |
| 1778029389 | 18.33° C | 76% | 1007.1 hPa | 0 mm | 1.79 m/s, 286° | 0 W/m² | - |
* Rain latest hour (hover to see other rain measurements)
** Current wind speed in m/s (hover to see current wind gust speed)